星链-1965 (STARLINK-1965 )

导读 | 豆包AI

STARLINK-1965是美国SpaceX公司星链(Starlink)星座的v1.5版本卫星,于2021年2月4日发射升空。该卫星运行在近地轨道,轨道高度约477-478公里,倾角53.157°,周期约94分钟,目前仍在正常工作。作为星链巨型低轨互联网星座的组成部分,它为全球偏远地区提供高速低延迟宽带互联网服务,助力构建覆盖全球的卫星通信网络。

基本信息
目录编号:
47566
目录名称:
STARLINK-1965
国际标识:
2021-009U
轨道中心:
EARTH
卫星名称:
星链-1965
卫星全名:
星链-1965 (STARLINK-1965 )
卫星状态:
已陨落 最后检测时间 2026-04-20
发射日期:
2021-02-04 UTC
国别 :
美国 (US)
星等 :
--
轨道信息
数据来源 国际轨道数据
星历时间: 2026-04-21T01:53:12+0800
轨道信息已过期11天
半长轴: 6520.342km
偏心率: 0.0006127
轨道倾角: 52.992°
近地点辐角 233.004°
升交点赤经 65.878°
平近点角 127.044°
近地点: 138.209km
远地点: 146.201km
周期: 87.330分钟
每日圈数: 16.489113
详细信息
固有亮度:
5
最大亮度:
2.5
卫星平台:
Starlink V1.0
覆盖范围:
全球
运营商:
太空探索技术公司
运营商所在国:
美国
制造商(研发单位):
太空探索技术公司
制造商所在国:
美国
使用方式:
暂无
卫星简介
星链(Starlink)计划是由太空探索技术公司(SpaceX)提出的一个巨型低轨卫星互联网星座项目,计划在2019年至2024年间在太空搭建由约1.2万颗卫星组成的“星链”网络,其中1584颗将部署在地球上空550千米处的近地轨道,并从2020年开始工作。该卫星仍在工作。